Theta_e
317 317 318 318 318 319 319 319 318 318 319 319 319 320 321 321 322 322 322 323 326 326 324 325 325 326 327 326 327 326 327 328 328 328 327 326 326 326 326 325 327 328 325 325 326 326 327 329 327 321 315 313 313 314 315 316 317 319 318 319 320 321 323
316 316 317 317 317 318 319 318 317 317 317 318 318 318 319 320 319 320 320 322 323 323 323 323 323 324 325 324 326 326 327 328 327 328 328 327 327 327 326 325 324 323 320 320 323 324 324 326 328 324 316 311 311 313 315 316 317 318 318 319 319 320 322
317 318 318 317 317 318 319 318 316 315 316 317 318 318 318 319 319 319 321 321 321 321 321 322 322 323 322 323 325 326 325 326 326 327 327 327 327 326 325 324 321 318 315 314 315 318 318 318 321 320 313 311 313 313 314 314 314 315 315 315 316 316 316
318 318 317 317 318 318 318 318 316 315 315 315 316 317 317 317 317 318 320 320 320 320 320 320 320 320 320 322 323 323 321 321 322 324 325 325 325 323 321 320 317 314 313 311 310 311 311 311 315 314 310 309 311 311 313 314 313 312 313 312 311 311 311
318 317 316 317 319 319 318 317 316 315 315 313 313 313 313 312 312 312 315 317 318 319 318 318 318 317 318 319 319 318 316 316 317 318 320 320 319 317 315 314 312 311 310 310 310 310 310 310 310 310 308 309 311 309 311 314 313 311 312 312 309 307 308
317 316 315 316 318 318 317 317 315 314 314 314 313 312 312 311 310 308 309 311 312 313 313 314 314 313 313 315 316 314 312 311 312 312 313 313 313 312 311 310 309 309 309 309 310 309 309 308 308 309 308 308 310 309 309 311 312 310 308 309 309 305 306
317 317 315 314 316 317 317 315 313 313 313 313 313 313 312 310 308 307 308 309 309 309 308 306 305 304 305 307 308 307 306 306 306 307 308 309 309 308 307 307 307 307 307 307 307 308 307 307 308 308 308 307 307 307 307 307 309 309 306 306 308 305 305
317 318 315 313 312 314 315 313 311 311 311 311 311 311 311 309 309 309 310 309 309 308 305 302 302 301 302 302 303 303 302 302 303 304 306 307 306 304 302 302 302 303 302 302 302 304 305 307 307 307 307 309 309 308 306 306 306 307 306 305 306 306 305
315 317 317 314 311 311 312 312 310 309 309 309 309 309 309 308 309 311 310 310 310 309 307 305 304 303 303 303 303 303 302 301 302 303 303 304 304 302 302 302 301 301 301 300 300 302 305 306 306 306 306 308 309 311 311 311 309 307 306 305 305 306 306
315 317 317 315 313 312 312 311 309 309 309 309 307 307 308 308 308 310 310 311 312 311 311 310 307 304 303 304 305 305 303 303 302 302 302 303 304 304 305 304 303 304 304 304 304 305 305 306 305 305 306 306 307 310 313 314 312 308 305 306 305 305 306
318 318 317 316 314 313 313 312 310 309 309 309 308 307 307 307 307 308 309 310 312 312 311 311 309 306 304 306 308 307 307 306 304 303 303 303 303 304 306 305 303 304 305 306 306 306 306 306 306 306 306 307 307 308 309 311 312 309 306 306 305 305 305
319 318 318 317 315 314 314 313 311 310 309 309 309 310 309 307 306 307 308 310 312 312 311 311 310 307 306 307 308 308 308 308 306 305 305 304 304 304 304 305 303 303 304 305 306 306 305 305 305 305 306 306 307 307 307 307 309 308 305 305 305 304 304
318 319 318 317 316 315 314 315 313 311 310 310 310 310 311 310 307 306 306 309 311 311 311 310 310 309 309 309 309 309 309 308 307 307 307 307 306 305 304 305 305 305 304 304 304 305 305 304 305 305 305 306 306 306 306 306 307 307 305 304 304 303 303
318 319 318 317 317 315 314 315 315 313 312 311 311 311 312 312 310 307 306 307 309 310 310 310 310 310 310 310 310 310 309 309 308 309 309 308 307 306 305 305 306 306 305 304 303 303 304 304 305 305 305 305 305 305 305 304 305 304 304 303 303 302 301
317 318 318 317 317 317 316 315 316 315 314 312 312 312 312 313 312 310 307 306 307 308 309 310 310 310 309 310 311 310 310 310 309 309 309 310 309 308 307 306 305 305 305 305 305 304 304 304 305 305 305 305 305 304 304 303 303 303 302 302 301 299 298
317 318 318 317 317 318 317 317 316 316 315 313 313 313 313 313 313 312 310 309 308 308 309 310 311 310 309 310 311 311 311 310 310 309 309 309 310 309 308 308 306 305 305 305 305 305 305 304 305 305 305 305 305 304 304 303 302 301 300 299 297 296 295
318 318 319 318 317 317 317 317 317 316 315 314 314 314 314 314 314 314 313 312 312 311 311 311 311 312 311 310 310 311 311 311 310 310 310 310 310 309 309 309 308 307 306 306 306 306 306 305 304 305 305 305 305 304 303 302 300 298 297 296 295 295 295
318 317 318 318 317 317 318 318 317 317 316 315 314 314 314 315 315 314 314 314 314 315 315 314 314 314 313 312 311 311 311 311 311 311 310 311 310 310 309 309 308 308 307 306 306 306 306 306 305 305 305 305 305 304 302 300 298 296 294 294 295 295 296
320 320 319 319 318 318 318 318 318 318 316 315 315 315 315 315 315 315 315 315 315 316 316 316 316 316 315 314 313 313 312 312 312 312 311 312 312 311 310 309 309 309 308 307 307 307 306 306 306 305 305 305 304 304 302 299 297 296 295 295 296 296 296
320 320 319 319 319 319 319 318 319 319 318 316 316 316 316 316 315 315 315 315 316 316 317 317 317 317 316 316 316 315 314 313 313 312 312 312 312 312 312 311 310 309 308 308 308 307 306 306 306 305 305 304 304 303 301 300 298 297 296 296 296 296 295
319 318 319 319 319 319 319 319 319 319 318 317 317 317 316 316 316 316 316 316 316 316 317 317 317 317 317 317 317 316 316 315 314 313 312 312 312 312 312 312 311 309 309 308 308 307 307 306 306 305 305 304 304 303 301 300 299 298 297 297 296 296 296
319 318 319 319 319 319 318 319 318 318 317 316 316 315 315 316 317 317 317 318 317 317 318 318 318 318 318 317 317 317 317 317 316 316 315 315 314 313 312 312 312 311 309 309 308 308 307 306 306 305 304 304 303 302 301 300 300 299 298 297 296 296 296
320 319 319 319 318 318 318 318 317 317 317 316 315 315 315 316 317 316 317 318 318 318 317 317 317 316 316 315 315 315 316 316 316 316 316 316 315 314 313 313 312 311 310 309 308 308 307 306 306 305 304 303 302 302 302 301 300 299 298 298 297 297 296
321 320 320 320 319 318 317 317 316 317 317 317 316 316 317 317 317 317 318 318 318 318 317 317 317 316 317 317 317 317 317 317 317 317 317 316 316 316 315 314 313 312 310 309 308 308 307 306 305 304 303 302 302 302 302 301 300 299 299 298 297 297 296
321 320 320 319 318 317 317 316 317 318 318 318 318 318 317 317 317 317 317 318 318 317 317 316 317 317 317 316 316 316 317 318 318 318 318 318 318 317 316 314 313 311 310 309 308 307 305 305 304 303 303 302 302 302 302 301 300 299 299 298 298 297 297
319 319 320 319 318 317 316 316 318 319 319 318 318 317 317 317 316 315 316 317 317 317 316 316 316 314 312 311 309 309 311 313 316 318 318 318 318 317 316 314 312 310 308 308 307 305 305 305 304 303 302 302 301 301 301 300 300 300 299 298 298 297 297
317 318 318 318 318 318 317 317 319 318 317 317 317 317 316 317 316 316 316 317 317 316 314 314 313 311 311 309 307 306 307 311 314 317 318 317 316 315 315 313 312 309 307 306 305 305 306 306 304 303 302 301 301 301 301 300 300 299 299 298 298 297 297
315 316 316 316 317 318 318 318 317 316 316 316 316 316 317 317 317 316 316 315 314 314 313 312 312 312 311 309 307 306 309 312 315 316 316 315 314 313 312 312 311 308 306 305 305 305 305 305 303 302 302 301 301 301 301 300 300 299 299 299 298 297 296
313 314 313 313 313 314 313 313 313 313 314 313 314 314 314 314 314 313 313 313 313 312 312 312 312 311 311 310 308 308 310 312 313 314 313 312 312 311 311 311 310 307 306 305 305 304 304 304 303 302 301 301 301 301 301 300 300 299 299 298 297 297 296
309 309 308 308 309 309 309 309 309 310 310 311 311 311 311 311 311 311 311 311 311 312 312 312 312 311 311 310 308 308 310 310 311 311 311 311 310 310 310 310 309 307 306 305 305 304 304 304 303 301 301 301 301 301 300 299 298 298 297 297 296 296 295
309 308 307 306 307 308 308 308 308 307 308 308 308 308 309 309 310 311 310 310 311 312 312 312 312 311 311 310 309 308 309 309 309 309 308 308 307 306 306 306 305 305 305 305 304 303 303 303 302 302 301 301 300 299 298 298 297 296 296 295 295 294 294
309 309 308 306 307 308 308 307 307 306 307 307 307 307 307 307 309 311 311 311 312 313 313 313 312 311 310 310 309 308 308 308 307 307 306 305 305 304 303 303 303 303 303 302 302 301 301 301 301 300 300 299 299 298 297 297 296 296 295 294 294 293 293
308 308 308 307 307 307 307 307 307 306 306 306 306 306 305 305 307 309 311 312 313 313 313 312 311 310 309 309 308 308 307 306 306 305 305 304 304 303 302 302 301 301 301 301 300 300 300 300 299 299 298 298 297 296 296 295 295 294 294 293 293 292 292
306 307 307 308 308 308 308 307 307 307 307 306 305 304 304 304 305 307 309 311 312 312 311 311 310 309 308 308 308 307 306 305 305 304 304 303 303 302 301 301 300 299 299 299 299 298 298 298 297 297 296 296 295 295 294 294 293 293 292 292 292 292 291
305 305 306 306 306 307 307 307 308 308 307 307 306 305 305 305 305 305 307 309 310 310 310 309 308 308 307 307 306 306 305 304 303 303 302 302 301 300 299 299 298 297 297 297 297 297 297 296 296 295 294 294 293 293 293 293 292 292 292 291 291 291 291
304 304 304 304 304 304 305 305 307 307 306 307 306 306 306 305 305 305 306 307 309 309 309 308 308 307 307 306 305 304 303 303 302 301 300 299 299 298 297 297 296 296 296 296 296 296 295 295 294 293 293 293 293 293 292 292 292 291 291 291 290 290 290
304 304 304 304 304 304 303 303 303 304 304 305 306 306 306 305 305 305 306 306 308 308 308 308 307 306 305 304 303 302 301 300 300 299 298 298 297 297 296 296 296 296 296 296 295 295 294 293 293 293 292 292 292 292 292 291 291 291 291 291 291 291 290
Wind_Speed
16 16 15 14 13 14 13 12 10 10 10 9 9 10 11 11 10 9 6 5 5 5 5 6 6 6 6 4 4 4 5 5 4 4 7 8 7 4 4 3 4 5 5 4 4 2 2 0 4 5 8 12 10 11 13 10 8 7 7 7 7 6 6
16 17 16 14 13 13 14 14 13 12 11 10 10 12 13 13 12 11 9 8 8 8 8 8 9 8 7 5 4 3 3 4 3 3 5 6 6 6 7 7 7 8 8 8 7 5 4 2 2 2 7 13 12 14 15 12 10 9 9 10 9 9 8
20 19 17 16 15 15 15 15 14 13 13 13 14 15 15 15 14 12 11 12 12 12 12 11 11 10 8 7 6 6 6 6 6 6 5 5 7 7 7 8 9 8 7 8 8 7 5 3 1 1 5 8 8 11 16 18 20 19 19 20 20 19 19
22 21 20 19 17 17 16 15 13 13 13 15 17 17 16 15 14 13 12 13 13 13 13 12 11 10 9 9 9 9 10 10 10 10 10 10 10 10 9 9 9 8 7 7 7 8 6 5 3 2 5 7 5 5 11 15 19 21 21 23 24 24 23
23 22 21 21 20 18 17 15 14 13 14 15 16 15 14 12 11 12 12 13 12 11 11 11 10 10 10 10 11 11 12 12 11 11 12 12 11 11 11 9 9 8 8 9 8 8 9 7 6 4 5 7 4 4 7 9 12 16 18 19 23 25 23
21 21 21 21 21 19 18 17 15 15 15 16 15 14 13 11 10 12 13 13 12 12 12 11 10 10 10 10 11 10 10 10 9 9 10 10 9 9 9 8 7 7 8 8 7 7 8 8 9 7 5 5 2 4 7 8 8 11 15 15 18 25 25
19 19 20 19 20 20 19 18 17 17 17 17 16 15 13 12 12 14 14 14 13 13 13 13 13 12 12 12 11 10 9 8 8 8 9 9 8 8 7 6 7 7 7 6 5 6 7 8 10 9 7 4 2 4 7 9 9 10 16 16 14 23 26
13 18 20 18 18 20 19 19 19 18 18 17 17 16 14 13 13 14 14 14 14 13 13 14 14 14 14 13 13 12 11 9 8 9 9 8 9 9 8 7 7 8 7 6 6 6 8 9 10 10 10 6 3 6 6 9 10 10 17 19 14 21 27
8 20 24 18 18 19 19 19 19 18 18 18 17 17 16 15 14 15 14 13 13 13 13 13 13 13 13 13 13 13 12 10 9 10 9 8 9 9 9 9 8 9 10 9 9 10 10 10 10 9 11 9 6 4 4 6 7 5 14 19 14 19 25
11 22 26 22 19 19 19 19 19 18 18 18 18 18 17 16 15 15 14 14 13 12 12 12 11 12 11 11 12 12 12 11 10 10 9 9 9 9 9 9 9 11 11 11 11 11 10 10 10 9 10 10 8 5 2 4 4 2 10 17 14 17 23
19 23 26 25 22 20 20 21 19 19 18 18 18 18 18 17 17 16 15 15 14 13 13 12 11 11 11 10 11 11 11 9 9 10 8 8 8 7 8 9 9 9 9 10 10 9 9 8 9 9 8 8 9 6 4 2 2 3 9 15 15 17 22
27 27 28 28 26 22 22 22 22 20 19 19 19 18 18 18 18 18 17 16 15 14 14 13 11 11 10 10 10 10 10 8 8 8 7 6 6 5 6 7 8 8 8 7 6 6 7 8 7 8 7 7 7 7 5 3 1 4 9 13 15 18 20
31 30 31 32 30 25 23 23 24 22 21 20 19 19 18 17 17 18 18 17 16 15 14 13 11 10 9 9 8 9 9 8 7 7 7 5 5 4 4 6 6 7 7 6 5 5 6 7 7 8 8 7 7 8 8 5 1 6 10 12 15 19 20
31 30 31 33 33 29 25 25 25 24 22 22 20 20 19 17 16 16 17 18 17 16 15 13 12 11 10 9 8 8 8 8 7 6 6 6 4 4 3 4 4 4 5 5 5 5 4 5 6 7 7 7 7 8 9 9 6 8 12 14 17 19 21
32 30 29 31 33 32 28 26 27 26 25 24 22 20 19 18 17 16 16 17 17 16 15 14 13 12 12 11 10 10 9 8 8 7 7 6 5 4 3 3 2 2 2 2 2 4 4 3 4 5 6 6 6 7 9 11 11 9 13 18 19 20 22
29 24 24 29 32 30 27 27 28 29 29 27 24 23 21 19 18 17 16 16 16 15 14 14 14 13 12 11 11 10 10 9 9 8 7 7 6 6 6 4 3 3 2 2 1 1 2 2 2 3 4 4 5 7 8 11 12 11 13 18 20 21 22
25 22 22 27 30 28 25 26 27 28 29 29 27 24 23 21 20 19 17 16 15 15 14 14 14 14 13 12 11 11 11 10 10 9 8 7 7 8 7 7 6 5 4 4 4 3 2 2 1 1 2 3 4 6 8 9 12 12 13 16 18 19 20
25 26 26 26 27 25 23 22 22 23 23 25 26 25 23 22 21 21 20 17 16 15 14 14 14 14 14 13 13 12 12 12 11 11 10 8 8 9 9 9 8 8 7 6 6 5 4 4 3 2 2 3 3 5 7 8 11 12 13 15 17 17 18
24 27 29 28 25 23 22 18 16 17 17 16 17 19 18 16 17 20 21 19 17 15 14 14 14 14 14 14 14 14 14 14 13 13 14 12 11 11 11 11 10 10 11 9 8 8 7 6 5 4 3 4 4 5 7 9 11 12 12 13 14 16 19
20 25 27 25 21 19 21 19 15 16 18 16 13 12 14 15 16 20 23 22 20 17 15 16 16 15 15 15 16 16 17 16 16 17 17 16 15 14 13 12 13 13 13 12 11 11 10 9 7 6 5 5 6 7 8 10 11 11 12 12 13 16 18
17 21 21 20 18 16 16 16 14 13 16 16 12 10 14 17 18 20 22 23 22 20 19 19 18 18 18 17 17 18 18 19 19 19 20 19 19 19 17 15 16 16 15 15 14 13 12 11 9 8 7 6 7 7 8 10 11 10 10 10 12 14 17
17 18 17 16 17 16 13 11 11 11 12 14 14 15 20 22 21 24 26 25 25 23 21 20 18 17 17 17 17 18 19 19 20 21 22 22 23 23 21 20 19 19 18 17 16 16 14 13 11 9 8 7 7 7 8 8 9 8 7 9 11 13 16
20 20 18 16 15 16 17 16 18 20 21 23 24 24 27 27 26 28 30 28 27 24 20 17 15 14 15 15 15 16 18 19 19 20 22 23 24 24 24 24 23 22 20 19 18 17 16 14 12 10 8 8 8 7 7 7 6 5 5 7 8 10 13
21 21 22 23 21 21 22 22 23 23 23 23 22 21 25 29 30 31 30 27 26 23 18 16 15 13 13 12 11 13 15 17 18 19 21 22 23 24 25 26 26 24 22 20 20 18 17 15 12 9 9 9 9 8 7 6 5 4 4 5 7 8 9
21 21 24 24 23 23 22 22 24 24 22 21 20 21 27 31 30 28 28 26 23 19 17 14 11 9 8 8 10 11 12 14 15 17 19 21 22 23 23 25 27 25 23 21 21 19 16 13 10 9 9 9 9 9 8 7 6 5 5 6 7 8 9
22 23 23 22 22 23 23 25 25 23 20 20 22 24 26 27 25 25 27 23 17 13 10 8 6 6 8 10 12 13 14 14 15 15 16 18 20 21 22 23 24 23 22 21 20 19 17 12 10 10 10 10 9 8 8 7 6 6 7 7 8 10 10
20 20 21 21 22 23 24 25 25 22 21 21 23 24 24 24 25 24 21 15 10 7 5 4 5 7 10 13 14 14 13 14 15 15 15 14 16 17 19 21 20 20 21 20 19 18 15 13 11 11 11 10 9 8 8 8 8 8 8 9 10 11 10
18 18 18 19 19 20 20 20 19 19 18 18 20 22 22 21 21 18 13 10 7 5 4 4 6 8 11 13 14 12 10 10 12 13 13 12 11 12 14 17 18 17 18 18 17 14 12 10 10 12 11 11 10 9 9 10 10 10 10 10 11 10 10
14 15 16 17 17 17 16 16 15 15 14 14 14 14 14 13 11 10 8 7 5 4 4 6 7 10 12 13 13 11 9 9 10 10 10 9 8 8 10 14 15 14 15 16 14 12 9 9 10 13 13 11 11 11 11 11 11 11 10 10 9 9 9
12 13 13 13 13 14 13 12 12 12 11 11 11 9 8 7 5 4 4 4 4 4 6 6 7 8 10 10 11 10 9 8 8 8 6 5 5 5 6 9 11 12 13 13 12 11 11 11 12 13 12 11 11 10 9 8 8 8 8 8 8 9 11
6 6 6 8 9 9 9 9 8 8 8 8 8 7 5 4 3 3 4 4 5 6 6 6 6 6 7 7 8 8 7 6 5 4 2 1 1 2 4 6 8 9 10 10 10 9 9 10 10 11 10 10 9 8 7 7 7 7 8 9 10 11 12
7 6 4 5 7 8 8 7 5 5 6 5 5 5 4 3 3 4 6 7 7 8 7 7 6 4 4 4 5 5 4 3 2 1 2 3 5 5 5 6 6 6 7 7 7 7 6 6 7 7 7 8 7 7 8 9 10 12 12 13 14 14 15
8 10 8 8 9 9 8 6 5 4 4 4 3 3 3 2 2 2 5 7 9 9 8 7 5 4 3 3 3 3 3 3 2 3 4 4 5 5 4 4 4 4 5 5 4 4 3 3 4 4 5 5 5 6 8 10 11 12 13 14 15 15 15
4 7 8 10 11 10 9 8 7 7 6 5 4 3 3 2 1 2 4 6 8 8 7 6 5 4 3 2 3 3 3 4 4 4 4 5 5 4 5 4 4 4 3 3 2 1 1 1 2 3 4 5 6 7 8 9 10 11 12 13 13 14 15
2 3 4 6 7 7 8 9 9 9 9 8 6 5 4 3 2 2 3 5 7 7 7 6 5 4 3 3 3 3 3 3 4 4 5 5 5 4 5 5 5 5 3 2 1 0 1 3 4 5 5 5 6 7 8 9 10 11 12 13 14 16 16
5 4 4 4 4 4 5 6 7 7 7 7 6 5 4 4 4 5 6 6 7 8 8 7 6 5 4 4 4 3 3 3 4 4 4 4 4 5 6 6 5 4 2 0 2 3 5 6 6 6 5 5 6 7 8 9 10 11 13 14 16 17 18
15 14 12 10 8 7 6 5 5 5 5 5 6 6 7 7 8 8 8 8 9 9 9 8 7 7 6 5 4 4 3 4 4 4 3 3 5 6 6 5 3 1 2 3 4 5 6 6 5 4 4 4 5 6 7 9 10 12 14 15 16 18 19
Wind_Direction
157 150 151 147 143 143 145 149 148 143 141 140 141 145 152 155 152 153 157 169 164 134 112 107 102 106 118 138 172 189 196 206 214 207 199 188 175 157 117 107 95 88 77 76 99 106 125 287 351 22 19 12 20 25 18 12 4 357 352 345 337 331 321
154 149 151 151 149 148 145 143 141 139 139 141 143 140 139 139 135 136 136 130 127 117 108 106 104 104 104 104 121 149 167 176 175 185 196 182 156 146 138 125 111 102 87 79 85 91 101 103 330 328 352 360 13 30 36 43 47 43 38 37 39 39 37
152 151 152 152 153 154 150 144 138 133 134 135 136 134 131 129 125 124 125 122 119 116 113 111 111 110 105 101 105 114 117 117 116 125 140 138 135 137 135 130 117 107 96 81 75 73 77 81 66 311 348 357 0 27 47 59 62 65 66 63 61 58 57
157 156 157 156 157 160 158 154 147 139 137 134 133 132 129 127 126 127 130 130 127 125 122 119 117 116 115 115 116 114 108 104 105 113 120 121 122 118 113 115 108 95 87 79 70 59 54 55 50 351 350 352 333 11 48 59 58 61 63 58 52 48 49
164 164 163 162 163 165 164 163 159 151 146 142 138 135 132 130 129 131 135 137 136 135 132 130 127 123 120 118 117 113 106 102 104 108 112 114 115 112 105 99 91 83 77 76 71 58 54 51 48 32 357 353 338 352 32 52 53 52 51 46 40 35 36
170 171 169 168 169 170 170 171 170 164 156 153 151 145 141 139 135 131 131 132 132 131 131 132 132 131 132 131 126 118 109 106 108 111 111 110 108 104 99 94 86 82 77 73 68 60 58 53 49 41 9 359 336 338 13 33 43 46 39 33 31 28 30
174 180 179 176 175 176 177 177 177 174 167 163 160 154 149 145 138 130 125 123 122 121 121 122 122 122 127 131 128 119 111 109 111 112 111 109 106 99 97 99 92 87 83 75 67 61 60 58 57 47 22 16 6 358 19 26 31 42 29 25 29 25 27
180 196 191 187 185 184 185 185 183 180 174 168 164 159 155 150 143 134 129 125 123 121 120 121 120 120 121 121 119 113 109 109 109 109 110 109 107 100 94 92 92 90 82 76 76 73 68 62 61 55 42 46 32 5 12 16 25 37 21 19 28 21 20
200 207 197 197 195 192 193 192 189 184 178 172 168 164 161 157 151 144 140 136 132 129 126 125 124 125 125 121 117 113 109 110 109 107 109 110 110 107 95 83 87 91 83 82 85 80 75 66 61 57 50 62 70 22 0 359 9 28 14 13 18 13 14
211 207 201 202 201 199 202 200 196 191 184 177 173 169 166 163 159 156 154 149 146 143 137 132 128 129 129 123 118 116 112 110 107 105 105 105 109 110 97 84 85 90 87 86 87 82 78 69 63 62 53 58 70 72 57 0 337 311 2 8 8 4 8
214 212 209 206 203 203 206 207 204 200 193 186 181 175 170 168 166 166 166 161 158 157 154 147 140 140 139 131 125 123 119 116 112 110 104 99 103 107 100 91 85 90 93 93 91 83 73 61 54 54 51 47 49 64 90 39 329 305 345 358 5 4 3
215 216 214 208 205 206 209 211 209 205 200 194 190 184 177 173 171 172 172 170 167 165 163 159 154 153 151 144 140 137 132 128 123 120 117 105 99 99 101 98 87 84 91 89 87 77 55 45 41 39 41 36 31 36 48 60 11 325 339 348 358 3 3
219 219 216 209 207 208 210 214 213 209 205 200 197 193 188 184 178 176 176 176 175 173 171 170 169 167 164 159 154 151 147 143 138 133 132 125 113 105 105 107 95 79 76 70 64 59 41 38 42 41 39 36 30 25 24 35 348 315 337 349 354 0 2
222 225 221 212 210 211 211 215 216 214 208 205 203 199 197 195 189 183 181 181 183 183 182 181 181 183 181 176 173 171 167 162 159 157 151 147 142 136 128 123 114 88 77 68 50 43 37 38 42 41 39 33 29 25 18 19 4 328 337 351 354 358 359
222 228 228 218 212 212 211 213 217 218 213 209 207 205 202 201 199 194 189 186 188 191 192 190 189 193 194 191 190 191 189 185 182 183 181 176 172 175 182 167 152 139 111 90 49 31 27 28 30 32 37 31 22 21 13 9 8 350 341 346 351 355 357
217 227 232 221 213 212 212 212 214 218 217 212 209 208 207 206 204 202 197 194 194 194 197 198 198 203 207 205 205 207 209 207 202 201 202 202 197 200 208 208 200 199 192 190 211 331 0 356 0 16 26 23 13 13 7 2 4 2 348 343 348 355 357
212 223 231 222 213 211 214 214 211 212 213 211 210 209 210 212 213 210 204 199 198 199 200 203 207 211 213 215 216 219 222 223 224 223 218 216 218 220 226 229 228 227 222 214 217 226 244 264 280 315 358 359 355 354 355 355 357 359 353 344 347 356 0
214 221 225 218 210 209 216 219 212 207 207 207 209 209 209 217 222 219 214 206 201 203 204 207 214 217 218 221 224 228 230 231 236 240 237 232 229 231 237 240 241 241 239 233 225 228 236 242 251 254 278 312 328 337 344 350 353 354 355 352 350 354 360
219 217 212 207 200 199 206 212 207 203 201 197 201 205 210 226 237 231 228 223 214 213 216 218 224 227 226 229 233 236 238 238 241 245 246 243 238 238 242 245 245 241 241 244 237 233 238 240 243 255 271 292 310 325 336 346 352 353 357 2 359 357 0
204 199 195 189 183 186 198 204 204 205 204 198 202 215 222 237 247 242 242 242 234 231 235 234 237 239 238 241 244 245 244 245 248 249 250 251 247 244 244 246 247 242 240 244 241 235 236 239 244 255 271 289 303 314 328 339 345 350 356 3 4 1 1
187 189 186 177 168 169 180 187 185 187 191 195 210 247 251 245 242 239 245 251 248 248 250 247 248 250 249 250 253 256 255 253 254 254 254 256 256 252 248 248 247 245 243 243 242 238 236 238 242 248 259 276 290 303 320 333 338 344 353 1 4 0 357
177 181 181 171 162 163 166 175 191 201 206 211 225 246 248 240 233 233 239 245 248 252 254 251 251 253 255 259 262 265 265 260 259 258 256 257 258 255 252 251 250 248 245 242 241 240 237 239 243 244 250 260 270 289 310 324 330 333 342 352 357 355 351
166 167 171 168 173 192 204 217 230 230 225 223 224 230 234 230 226 231 240 245 245 248 250 249 253 260 268 272 271 269 269 267 267 266 264 262 260 257 255 254 254 250 245 240 237 235 232 233 237 243 252 257 262 276 297 313 315 309 321 338 343 344 343
176 178 182 185 196 208 211 216 221 217 213 212 215 224 230 228 226 231 240 245 246 249 252 257 268 281 289 292 290 284 281 279 278 277 275 271 267 264 260 256 253 249 242 236 231 228 226 226 230 239 251 257 263 277 295 304 290 274 289 311 317 322 324
189 188 186 194 208 210 208 211 209 203 201 206 213 223 228 228 228 233 239 244 249 254 260 269 281 300 314 320 317 310 302 295 289 284 281 278 275 271 266 259 253 246 238 231 226 219 213 215 229 242 247 254 264 280 296 298 284 274 282 292 296 302 305
189 190 194 207 214 206 204 206 202 198 203 212 215 218 223 226 229 234 239 242 246 250 257 271 294 318 328 332 329 320 312 304 296 289 285 281 278 273 267 261 252 239 228 222 216 209 204 212 234 241 242 251 263 279 292 292 287 285 287 289 290 297 302
195 197 202 206 203 197 200 204 202 205 215 221 218 214 217 223 223 225 228 224 220 225 234 264 301 322 329 332 333 327 316 306 299 294 291 286 279 272 264 258 246 228 216 210 207 207 211 221 234 237 241 252 262 272 277 276 276 277 278 280 281 285 291
198 197 193 188 187 190 194 195 195 198 202 204 205 204 204 206 206 205 203 198 204 224 250 291 314 326 331 336 342 340 332 323 314 308 306 302 292 276 259 250 240 224 212 207 207 211 216 221 235 244 248 251 255 259 263 267 269 268 266 266 268 274 281
162 159 159 158 159 161 162 162 161 161 161 159 163 168 169 173 178 180 185 199 221 251 284 303 315 321 327 339 351 356 352 342 332 323 319 315 305 283 257 245 238 225 215 214 214 215 215 220 238 248 249 248 251 256 260 263 262 261 261 262 266 274 281
135 135 138 140 141 142 143 143 141 139 139 136 136 139 142 148 164 182 200 233 261 274 284 293 301 310 321 335 349 357 359 352 341 334 329 320 305 279 246 234 228 219 214 216 217 219 222 225 232 241 246 249 251 253 255 257 258 262 271 275 279 286 290
150 147 144 142 145 147 146 143 144 145 145 137 129 130 136 141 166 211 233 249 259 263 267 272 278 293 313 329 340 350 355 350 344 340 334 315 202 183 175 183 198 205 207 210 213 216 219 222 228 237 245 247 246 247 249 251 260 272 282 288 291 293 296
203 200 195 175 167 166 162 158 160 159 153 143 126 120 121 120 144 200 225 232 234 237 241 247 254 269 300 321 332 341 339 331 324 265 197 168 159 154 148 149 164 185 194 197 202 208 211 221 234 240 242 245 249 256 264 272 279 285 290 295 298 300 303
217 210 213 207 191 182 180 183 194 195 181 169 152 136 131 120 124 188 221 225 224 223 226 232 236 240 258 292 311 315 307 292 268 234 213 199 188 181 173 162 158 168 185 191 198 210 220 236 247 249 255 267 276 281 285 291 294 298 302 305 306 309 312
247 216 209 204 199 196 195 198 205 209 205 198 188 173 158 142 148 204 223 227 225 220 219 224 227 227 231 249 275 288 290 283 268 249 238 233 225 210 193 176 157 151 160 164 164 180 221 264 281 294 302 304 302 298 298 301 304 306 310 311 312 314 315
295 227 211 199 196 197 200 206 210 207 202 200 192 177 166 170 198 225 239 242 236 227 220 217 217 219 225 238 260 274 278 270 258 253 251 239 221 197 174 159 149 144 142 136 120 65 339 331 329 331 329 320 309 305 305 308 310 312 313 314 316 316 318
281 238 222 207 197 188 181 188 197 198 194 192 189 183 187 205 219 226 232 235 231 224 217 212 212 217 227 238 248 257 261 254 244 246 247 225 194 170 155 151 150 152 158 237 321 325 328 332 332 328 322 315 312 312 314 316 316 316 317 319 319 319 321
274 269 268 263 248 230 215 198 188 190 192 191 192 194 199 206 213 218 220 219 215 210 208 209 212 218 226 235 243 248 247 241 238 236 219 180 163 161 161 162 171 206 284 309 319 323 327 331 331 324 316 317 320 322 322 322 322 322 322 322 322 321 322